Data supplied by UK-AIR on 18/3/2023
All Data GMT hour ending 
Status: R =Ratified P=Provisional,P*=As supplied
,,London Teddington Bushy Park,,,,,,,,,,,,,,,,,,,,,,,
Date,time,"PM<sub>10</sub> particulate matter (Hourly measured)",status,unit,"PM<sub>2.5</sub> particulate matter (Hourly measured)",status,unit
 
01-01-2022,01:00,16.000,R,ugm-3 (FIDAS),11.887,R,ugm-3 (Ref.eq)
01-01-2022,02:00,14.925,R,ugm-3 (FIDAS),11.014,R,ugm-3 (Ref.eq)
01-01-2022,03:00,13.975,R,ugm-3 (FIDAS),10.377,R,ugm-3 (Ref.eq)
01-01-2022,04:00,14.225,R,ugm-3 (FIDAS),10.189,R,ugm-3 (Ref.eq)
01-01-2022,05:00,11.300,R,ugm-3 (FIDAS),7.736,R,ugm-3 (Ref.eq)
01-01-2022,06:00,10.000,R,ugm-3 (FIDAS),6.627,R,ugm-3 (Ref.eq)
01-01-2022,07:00,11.325,R,ugm-3 (FIDAS),7.429,R,ugm-3 (Ref.eq)
01-01-2022,08:00,11.250,R,ugm-3 (FIDAS),7.311,R,ugm-3 (Ref.eq)
01-01-2022,09:00,10.825,R,ugm-3 (FIDAS),6.722,R,ugm-3 (Ref.eq)
01-01-2022,10:00,10.500,R,ugm-3 (FIDAS),6.486,R,ugm-3 (Ref.eq)
01-01-2022,11:00,13.525,R,ugm-3 (FIDAS),7.264,R,ugm-3 (Ref.eq)
01-01-2022,12:00,16.225,R,ugm-3 (FIDAS),8.326,R,ugm-3 (Ref.eq)
01-01-2022,13:00,19.150,R,ugm-3 (FIDAS),9.293,R,ugm-3 (Ref.eq)
01-01-2022,14:00,20.950,R,ugm-3 (FIDAS),10.684,R,ugm-3 (Ref.eq)
01-01-2022,15:00,22.300,R,ugm-3 (FIDAS),11.934,R,ugm-3 (Ref.eq)
01-01-2022,16:00,21.750,R,ugm-3 (FIDAS),11.392,R,ugm-3 (Ref.eq)
01-01-2022,17:00,28.150,R,ugm-3 (FIDAS),14.222,R,ugm-3 (Ref.eq)
01-01-2022,18:00,25.300,R,ugm-3 (FIDAS),12.901,R,ugm-3 (Ref.eq)
01-01-2022,19:00,25.325,R,ugm-3 (FIDAS),13.373,R,ugm-3 (Ref.eq)
01-01-2022,20:00,24.250,R,ugm-3 (FIDAS),13.443,R,ugm-3 (Ref.eq)
01-01-2022,21:00,25.700,R,ugm-3 (FIDAS),13.726,R,ugm-3 (Ref.eq)
01-01-2022,22:00,25.300,R,ugm-3 (FIDAS),13.703,R,ugm-3 (Ref.eq)
01-01-2022,23:00,24.375,R,ugm-3 (FIDAS),13.302,R,ugm-3 (Ref.eq)
01-01-2022,24:00,18.750,R,ugm-3 (FIDAS),10.896,R,ugm-3 (Ref.eq)
02-01-2022,01:00,6.225,R,ugm-3 (FIDAS),4.269,R,ugm-3 (Ref.eq)
02-01-2022,02:00,7.275,R,ugm-3 (FIDAS),4.693,R,ugm-3 (Ref.eq)
02-01-2022,03:00,8.050,R,ugm-3 (FIDAS),4.929,R,ugm-3 (Ref.eq)
02-01-2022,04:00,6.550,R,ugm-3 (FIDAS),4.057,R,ugm-3 (Ref.eq)
02-01-2022,05:00,4.850,R,ugm-3 (FIDAS),2.972,R,ugm-3 (Ref.eq)
02-01-2022,06:00,7.375,R,ugm-3 (FIDAS),4.505,R,ugm-3 (Ref.eq)
02-01-2022,07:00,3.575,R,ugm-3 (FIDAS),2.052,R,ugm-3 (Ref.eq)
02-01-2022,08:00,4.050,R,ugm-3 (FIDAS),2.075,R,ugm-3 (Ref.eq)
02-01-2022,09:00,5.075,R,ugm-3 (FIDAS),2.359,R,ugm-3 (Ref.eq)
02-01-2022,10:00,4.150,R,ugm-3 (FIDAS),2.099,R,ugm-3 (Ref.eq)
02-01-2022,11:00,3.750,R,ugm-3 (FIDAS),1.981,R,ugm-3 (Ref.eq)
02-01-2022,12:00,4.200,R,ugm-3 (FIDAS),2.146,R,ugm-3 (Ref.eq)
02-01-2022,13:00,5.225,R,ugm-3 (FIDAS),2.382,R,ugm-3 (Ref.eq)
02-01-2022,14:00,7.525,R,ugm-3 (FIDAS),3.844,R,ugm-3 (Ref.eq)
02-01-2022,15:00,7.700,R,ugm-3 (FIDAS),4.340,R,ugm-3 (Ref.eq)
02-01-2022,16:00,3.475,R,ugm-3 (FIDAS),2.241,R,ugm-3 (Ref.eq)
02-01-2022,17:00,5.175,R,ugm-3 (FIDAS),2.783,R,ugm-3 (Ref.eq)
02-01-2022,18:00,5.675,R,ugm-3 (FIDAS),3.231,R,ugm-3 (Ref.eq)
02-01-2022,19:00,6.900,R,ugm-3 (FIDAS),3.703,R,ugm-3 (Ref.eq)
02-01-2022,20:00,7.100,R,ugm-3 (FIDAS),3.821,R,ugm-3 (Ref.eq)
02-01-2022,21:00,7.500,R,ugm-3 (FIDAS),3.656,R,ugm-3 (Ref.eq)
02-01-2022,22:00,10.300,R,ugm-3 (FIDAS),5.000,R,ugm-3 (Ref.eq)
02-01-2022,23:00,14.875,R,ugm-3 (FIDAS),7.759,R,ugm-3 (Ref.eq)
02-01-2022,24:00,17.600,R,ugm-3 (FIDAS),9.222,R,ugm-3 (Ref.eq)
03-01-2022,01:00,18.350,R,ugm-3 (FIDAS),9.198,R,ugm-3 (Ref.eq)
03-01-2022,02:00,17.225,R,ugm-3 (FIDAS),9.198,R,ugm-3 (Ref.eq)
03-01-2022,03:00,15.775,R,ugm-3 (FIDAS),8.585,R,ugm-3 (Ref.eq)
03-01-2022,04:00,16.000,R,ugm-3 (FIDAS),8.373,R,ugm-3 (Ref.eq)
03-01-2022,05:00,15.350,R,ugm-3 (FIDAS),8.042,R,ugm-3 (Ref.eq)
03-01-2022,06:00,15.850,R,ugm-3 (FIDAS),8.042,R,ugm-3 (Ref.eq)
03-01-2022,07:00,19.200,R,ugm-3 (FIDAS),9.576,R,ugm-3 (Ref.eq)
03-01-2022,08:00,20.675,R,ugm-3 (FIDAS),10.425,R,ugm-3 (Ref.eq)
03-01-2022,09:00,17.475,R,ugm-3 (FIDAS),9.009,R,ugm-3 (Ref.eq)
03-01-2022,10:00,11.000,R,ugm-3 (FIDAS),5.259,R,ugm-3 (Ref.eq)
03-01-2022,11:00,7.350,R,ugm-3 (FIDAS),3.750,R,ugm-3 (Ref.eq)
03-01-2022,12:00,9.125,R,ugm-3 (FIDAS),4.434,R,ugm-3 (Ref.eq)
03-01-2022,13:00,10.425,R,ugm-3 (FIDAS),5.165,R,ugm-3 (Ref.eq)
03-01-2022,14:00,10.650,R,ugm-3 (FIDAS),5.212,R,ugm-3 (Ref.eq)
03-01-2022,15:00,10.000,R,ugm-3 (FIDAS),5.024,R,ugm-3 (Ref.eq)
03-01-2022,16:00,10.375,R,ugm-3 (FIDAS),5.307,R,ugm-3 (Ref.eq)
03-01-2022,17:00,11.675,R,ugm-3 (FIDAS),6.061,R,ugm-3 (Ref.eq)
03-01-2022,18:00,14.675,R,ugm-3 (FIDAS),8.326,R,ugm-3 (Ref.eq)
03-01-2022,19:00,14.650,R,ugm-3 (FIDAS),8.160,R,ugm-3 (Ref.eq)
03-01-2022,20:00,14.225,R,ugm-3 (FIDAS),7.830,R,ugm-3 (Ref.eq)
03-01-2022,21:00,13.575,R,ugm-3 (FIDAS),7.382,R,ugm-3 (Ref.eq)
03-01-2022,22:00,12.950,R,ugm-3 (FIDAS),7.311,R,ugm-3 (Ref.eq)
03-01-2022,23:00,11.850,R,ugm-3 (FIDAS),7.193,R,ugm-3 (Ref.eq)
03-01-2022,24:00,12.325,R,ugm-3 (FIDAS),7.052,R,ugm-3 (Ref.eq)
04-01-2022,01:00,11.375,R,ugm-3 (FIDAS),6.580,R,ugm-3 (Ref.eq)
04-01-2022,02:00,11.175,R,ugm-3 (FIDAS),6.344,R,ugm-3 (Ref.eq)
04-01-2022,03:00,10.800,R,ugm-3 (FIDAS),5.920,R,ugm-3 (Ref.eq)
04-01-2022,04:00,10.550,R,ugm-3 (FIDAS),6.109,R,ugm-3 (Ref.eq)
04-01-2022,05:00,11.900,R,ugm-3 (FIDAS),6.462,R,ugm-3 (Ref.eq)
04-01-2022,06:00,11.600,R,ugm-3 (FIDAS),6.533,R,ugm-3 (Ref.eq)
04-01-2022,07:00,10.850,R,ugm-3 (FIDAS),6.226,R,ugm-3 (Ref.eq)
04-01-2022,08:00,11.375,R,ugm-3 (FIDAS),6.344,R,ugm-3 (Ref.eq)
04-01-2022,09:00,10.700,R,ugm-3 (FIDAS),6.109,R,ugm-3 (Ref.eq)
04-01-2022,10:00,8.075,R,ugm-3 (FIDAS),4.575,R,ugm-3 (Ref.eq)
04-01-2022,11:00,1.725,R,ugm-3 (FIDAS),0.778,R,ugm-3 (Ref.eq)
04-01-2022,12:00,1.700,R,ugm-3 (FIDAS),1.109,R,ugm-3 (Ref.eq)
04-01-2022,13:00,3.275,R,ugm-3 (FIDAS),1.981,R,ugm-3 (Ref.eq)
04-01-2022,14:00,3.975,R,ugm-3 (FIDAS),2.406,R,ugm-3 (Ref.eq)
04-01-2022,15:00,5.775,R,ugm-3 (FIDAS),3.302,R,ugm-3 (Ref.eq)
04-01-2022,16:00,5.850,R,ugm-3 (FIDAS),3.467,R,ugm-3 (Ref.eq)
04-01-2022,17:00,7.450,R,ugm-3 (FIDAS),4.033,R,ugm-3 (Ref.eq)
04-01-2022,18:00,9.300,R,ugm-3 (FIDAS),5.330,R,ugm-3 (Ref.eq)
04-01-2022,19:00,10.475,R,ugm-3 (FIDAS),6.580,R,ugm-3 (Ref.eq)
04-01-2022,20:00,13.450,R,ugm-3 (FIDAS),7.995,R,ugm-3 (Ref.eq)
04-01-2022,21:00,13.650,R,ugm-3 (FIDAS),7.618,R,ugm-3 (Ref.eq)
04-01-2022,22:00,9.925,R,ugm-3 (FIDAS),5.943,R,ugm-3 (Ref.eq)
04-01-2022,23:00,7.875,R,ugm-3 (FIDAS),4.505,R,ugm-3 (Ref.eq)
04-01-2022,24:00,7.550,R,ugm-3 (FIDAS),4.175,R,ugm-3 (Ref.eq)
05-01-2022,01:00,7.450,R,ugm-3 (FIDAS),4.316,R,ugm-3 (Ref.eq)
05-01-2022,02:00,7.525,R,ugm-3 (FIDAS),4.127,R,ugm-3 (Ref.eq)
05-01-2022,03:00,6.925,R,ugm-3 (FIDAS),3.986,R,ugm-3 (Ref.eq)
05-01-2022,04:00,7.225,R,ugm-3 (FIDAS),4.009,R,ugm-3 (Ref.eq)
05-01-2022,05:00,8.525,R,ugm-3 (FIDAS),4.575,R,ugm-3 (Ref.eq)
05-01-2022,06:00,8.275,R,ugm-3 (FIDAS),4.811,R,ugm-3 (Ref.eq)
05-01-2022,07:00,8.525,R,ugm-3 (FIDAS),4.646,R,ugm-3 (Ref.eq)
05-01-2022,08:00,9.075,R,ugm-3 (FIDAS),4.788,R,ugm-3 (Ref.eq)
05-01-2022,09:00,9.750,R,ugm-3 (FIDAS),4.929,R,ugm-3 (Ref.eq)
05-01-2022,10:00,9.875,R,ugm-3 (FIDAS),5.118,R,ugm-3 (Ref.eq)
05-01-2022,11:00,10.600,R,ugm-3 (FIDAS),5.660,R,ugm-3 (Ref.eq)
05-01-2022,12:00,11.700,R,ugm-3 (FIDAS),5.826,R,ugm-3 (Ref.eq)
05-01-2022,13:00,12.350,R,ugm-3 (FIDAS),6.085,R,ugm-3 (Ref.eq)
05-01-2022,14:00,11.025,R,ugm-3 (FIDAS),5.613,R,ugm-3 (Ref.eq)
05-01-2022,15:00,9.650,R,ugm-3 (FIDAS),4.929,R,ugm-3 (Ref.eq)
05-01-2022,16:00,10.825,R,ugm-3 (FIDAS),5.637,R,ugm-3 (Ref.eq)
05-01-2022,17:00,11.175,R,ugm-3 (FIDAS),6.439,R,ugm-3 (Ref.eq)
05-01-2022,18:00,12.325,R,ugm-3 (FIDAS),7.288,R,ugm-3 (Ref.eq)
05-01-2022,19:00,14.775,R,ugm-3 (FIDAS),9.410,R,ugm-3 (Ref.eq)
05-01-2022,20:00,13.375,R,ugm-3 (FIDAS),8.868,R,ugm-3 (Ref.eq)
05-01-2022,21:00,14.025,R,ugm-3 (FIDAS),9.882,R,ugm-3 (Ref.eq)
05-01-2022,22:00,19.700,R,ugm-3 (FIDAS),15.826,R,ugm-3 (Ref.eq)
05-01-2022,23:00,15.300,R,ugm-3 (FIDAS),12.264,R,ugm-3 (Ref.eq)
05-01-2022,24:00,14.325,R,ugm-3 (FIDAS),12.217,R,ugm-3 (Ref.eq)
06-01-2022,01:00,14.725,R,ugm-3 (FIDAS),12.665,R,ugm-3 (Ref.eq)
06-01-2022,02:00,15.625,R,ugm-3 (FIDAS),13.373,R,ugm-3 (Ref.eq)
06-01-2022,03:00,14.800,R,ugm-3 (FIDAS),12.335,R,ugm-3 (Ref.eq)
06-01-2022,04:00,13.000,R,ugm-3 (FIDAS),10.943,R,ugm-3 (Ref.eq)
06-01-2022,05:00,11.600,R,ugm-3 (FIDAS),9.505,R,ugm-3 (Ref.eq)
06-01-2022,06:00,11.875,R,ugm-3 (FIDAS),9.717,R,ugm-3 (Ref.eq)
06-01-2022,07:00,12.550,R,ugm-3 (FIDAS),10.000,R,ugm-3 (Ref.eq)
06-01-2022,08:00,11.850,R,ugm-3 (FIDAS),9.222,R,ugm-3 (Ref.eq)
06-01-2022,09:00,11.925,R,ugm-3 (FIDAS),9.646,R,ugm-3 (Ref.eq)
06-01-2022,10:00,15.100,R,ugm-3 (FIDAS),10.684,R,ugm-3 (Ref.eq)
06-01-2022,11:00,15.950,R,ugm-3 (FIDAS),11.109,R,ugm-3 (Ref.eq)
06-01-2022,12:00,10.350,R,ugm-3 (FIDAS),6.816,R,ugm-3 (Ref.eq)
06-01-2022,13:00,12.250,R,ugm-3 (FIDAS),8.726,R,ugm-3 (Ref.eq)
06-01-2022,14:00,12.450,R,ugm-3 (FIDAS),8.962,R,ugm-3 (Ref.eq)
06-01-2022,15:00,10.450,R,ugm-3 (FIDAS),7.241,R,ugm-3 (Ref.eq)
06-01-2022,16:00,10.575,R,ugm-3 (FIDAS),6.557,R,ugm-3 (Ref.eq)
06-01-2022,17:00,10.225,R,ugm-3 (FIDAS),4.953,R,ugm-3 (Ref.eq)
06-01-2022,18:00,11.475,R,ugm-3 (FIDAS),5.778,R,ugm-3 (Ref.eq)
06-01-2022,19:00,8.650,R,ugm-3 (FIDAS),4.882,R,ugm-3 (Ref.eq)
06-01-2022,20:00,3.150,R,ugm-3 (FIDAS),2.170,R,ugm-3 (Ref.eq)
06-01-2022,21:00,1.275,R,ugm-3 (FIDAS),1.014,R,ugm-3 (Ref.eq)
06-01-2022,22:00,1.925,R,ugm-3 (FIDAS),1.415,R,ugm-3 (Ref.eq)
06-01-2022,23:00,5.125,R,ugm-3 (FIDAS),3.373,R,ugm-3 (Ref.eq)
06-01-2022,24:00,7.175,R,ugm-3 (FIDAS),4.175,R,ugm-3 (Ref.eq)
07-01-2022,01:00,2.650,R,ugm-3 (FIDAS),1.486,R,ugm-3 (Ref.eq)
07-01-2022,02:00,4.575,R,ugm-3 (FIDAS),2.335,R,ugm-3 (Ref.eq)
07-01-2022,03:00,7.550,R,ugm-3 (FIDAS),3.632,R,ugm-3 (Ref.eq)
07-01-2022,04:00,8.875,R,ugm-3 (FIDAS),4.363,R,ugm-3 (Ref.eq)
07-01-2022,05:00,7.125,R,ugm-3 (FIDAS),3.609,R,ugm-3 (Ref.eq)
07-01-2022,06:00,3.975,R,ugm-3 (FIDAS),2.146,R,ugm-3 (Ref.eq)
07-01-2022,07:00,4.425,R,ugm-3 (FIDAS),2.075,R,ugm-3 (Ref.eq)
07-01-2022,08:00,4.125,R,ugm-3 (FIDAS),2.146,R,ugm-3 (Ref.eq)
07-01-2022,09:00,4.225,R,ugm-3 (FIDAS),2.217,R,ugm-3 (Ref.eq)
07-01-2022,10:00,5.000,R,ugm-3 (FIDAS),2.571,R,ugm-3 (Ref.eq)
07-01-2022,11:00,5.200,R,ugm-3 (FIDAS),2.618,R,ugm-3 (Ref.eq)
07-01-2022,12:00,6.650,R,ugm-3 (FIDAS),3.113,R,ugm-3 (Ref.eq)
07-01-2022,13:00,7.600,R,ugm-3 (FIDAS),3.467,R,ugm-3 (Ref.eq)
07-01-2022,14:00,7.175,R,ugm-3 (FIDAS),3.656,R,ugm-3 (Ref.eq)
07-01-2022,15:00,9.325,R,ugm-3 (FIDAS),5.047,R,ugm-3 (Ref.eq)
07-01-2022,16:00,9.625,R,ugm-3 (FIDAS),5.377,R,ugm-3 (Ref.eq)
07-01-2022,17:00,4.525,R,ugm-3 (FIDAS),2.500,R,ugm-3 (Ref.eq)
07-01-2022,18:00,3.750,R,ugm-3 (FIDAS),2.547,R,ugm-3 (Ref.eq)
07-01-2022,19:00,5.575,R,ugm-3 (FIDAS),3.726,R,ugm-3 (Ref.eq)
07-01-2022,20:00,5.350,R,ugm-3 (FIDAS),4.505,R,ugm-3 (Ref.eq)
07-01-2022,21:00,6.925,R,ugm-3 (FIDAS),5.849,R,ugm-3 (Ref.eq)
07-01-2022,22:00,7.850,R,ugm-3 (FIDAS),6.792,R,ugm-3 (Ref.eq)
07-01-2022,23:00,8.825,R,ugm-3 (FIDAS),7.736,R,ugm-3 (Ref.eq)
07-01-2022,24:00,10.975,R,ugm-3 (FIDAS),9.882,R,ugm-3 (Ref.eq)
08-01-2022,01:00,12.125,R,ugm-3 (FIDAS),10.991,R,ugm-3 (Ref.eq)
08-01-2022,02:00,10.450,R,ugm-3 (FIDAS),9.340,R,ugm-3 (Ref.eq)
08-01-2022,03:00,8.200,R,ugm-3 (FIDAS),6.745,R,ugm-3 (Ref.eq)
08-01-2022,04:00,7.325,R,ugm-3 (FIDAS),5.708,R,ugm-3 (Ref.eq)
08-01-2022,05:00,6.100,R,ugm-3 (FIDAS),4.458,R,ugm-3 (Ref.eq)
08-01-2022,06:00,7.075,R,ugm-3 (FIDAS),3.797,R,ugm-3 (Ref.eq)
08-01-2022,07:00,8.000,R,ugm-3 (FIDAS),4.292,R,ugm-3 (Ref.eq)
08-01-2022,08:00,9.500,R,ugm-3 (FIDAS),5.873,R,ugm-3 (Ref.eq)
08-01-2022,09:00,10.175,R,ugm-3 (FIDAS),6.604,R,ugm-3 (Ref.eq)
08-01-2022,10:00,11.125,R,ugm-3 (FIDAS),6.910,R,ugm-3 (Ref.eq)
08-01-2022,11:00,8.350,R,ugm-3 (FIDAS),5.000,R,ugm-3 (Ref.eq)
08-01-2022,12:00,4.000,R,ugm-3 (FIDAS),2.571,R,ugm-3 (Ref.eq)
08-01-2022,13:00,3.125,R,ugm-3 (FIDAS),1.698,R,ugm-3 (Ref.eq)
08-01-2022,14:00,2.375,R,ugm-3 (FIDAS),1.344,R,ugm-3 (Ref.eq)
08-01-2022,15:00,2.075,R,ugm-3 (FIDAS),1.274,R,ugm-3 (Ref.eq)
08-01-2022,16:00,4.925,R,ugm-3 (FIDAS),2.901,R,ugm-3 (Ref.eq)
08-01-2022,17:00,8.575,R,ugm-3 (FIDAS),5.236,R,ugm-3 (Ref.eq)
08-01-2022,18:00,11.675,R,ugm-3 (FIDAS),7.052,R,ugm-3 (Ref.eq)
08-01-2022,19:00,13.800,R,ugm-3 (FIDAS),8.113,R,ugm-3 (Ref.eq)
08-01-2022,20:00,15.325,R,ugm-3 (FIDAS),9.222,R,ugm-3 (Ref.eq)
08-01-2022,21:00,10.350,R,ugm-3 (FIDAS),6.156,R,ugm-3 (Ref.eq)
08-01-2022,22:00,8.725,R,ugm-3 (FIDAS),4.646,R,ugm-3 (Ref.eq)
08-01-2022,23:00,9.975,R,ugm-3 (FIDAS),5.118,R,ugm-3 (Ref.eq)
08-01-2022,24:00,9.150,R,ugm-3 (FIDAS),4.741,R,ugm-3 (Ref.eq)
09-01-2022,01:00,9.250,R,ugm-3 (FIDAS),5.000,R,ugm-3 (Ref.eq)
09-01-2022,02:00,9.775,R,ugm-3 (FIDAS),5.047,R,ugm-3 (Ref.eq)
09-01-2022,03:00,10.400,R,ugm-3 (FIDAS),5.047,R,ugm-3 (Ref.eq)
09-01-2022,04:00,10.175,R,ugm-3 (FIDAS),5.142,R,ugm-3 (Ref.eq)
09-01-2022,05:00,10.775,R,ugm-3 (FIDAS),5.307,R,ugm-3 (Ref.eq)
09-01-2022,06:00,10.600,R,ugm-3 (FIDAS),5.354,R,ugm-3 (Ref.eq)
09-01-2022,07:00,9.800,R,ugm-3 (FIDAS),5.189,R,ugm-3 (Ref.eq)
09-01-2022,08:00,10.375,R,ugm-3 (FIDAS),5.094,R,ugm-3 (Ref.eq)
09-01-2022,09:00,10.650,R,ugm-3 (FIDAS),5.283,R,ugm-3 (Ref.eq)
09-01-2022,10:00,10.925,R,ugm-3 (FIDAS),6.061,R,ugm-3 (Ref.eq)
09-01-2022,11:00,11.575,R,ugm-3 (FIDAS),5.873,R,ugm-3 (Ref.eq)
09-01-2022,12:00,10.300,R,ugm-3 (FIDAS),5.495,R,ugm-3 (Ref.eq)
09-01-2022,13:00,10.375,R,ugm-3 (FIDAS),5.165,R,ugm-3 (Ref.eq)
09-01-2022,14:00,9.850,R,ugm-3 (FIDAS),5.354,R,ugm-3 (Ref.eq)
09-01-2022,15:00,10.300,R,ugm-3 (FIDAS),5.283,R,ugm-3 (Ref.eq)
09-01-2022,16:00,10.850,R,ugm-3 (FIDAS),5.731,R,ugm-3 (Ref.eq)
09-01-2022,17:00,15.450,R,ugm-3 (FIDAS),9.835,R,ugm-3 (Ref.eq)
09-01-2022,18:00,15.850,R,ugm-3 (FIDAS),11.392,R,ugm-3 (Ref.eq)
09-01-2022,19:00,17.900,R,ugm-3 (FIDAS),13.373,R,ugm-3 (Ref.eq)
09-01-2022,20:00,31.025,R,ugm-3 (FIDAS),25.849,R,ugm-3 (Ref.eq)
09-01-2022,21:00,25.775,R,ugm-3 (FIDAS),20.637,R,ugm-3 (Ref.eq)
09-01-2022,22:00,21.875,R,ugm-3 (FIDAS),18.113,R,ugm-3 (Ref.eq)
09-01-2022,23:00,26.150,R,ugm-3 (FIDAS),23.090,R,ugm-3 (Ref.eq)
09-01-2022,24:00,24.350,R,ugm-3 (FIDAS),20.967,R,ugm-3 (Ref.eq)
10-01-2022,01:00,20.150,R,ugm-3 (FIDAS),17.288,R,ugm-3 (Ref.eq)
10-01-2022,02:00,20.825,R,ugm-3 (FIDAS),17.241,R,ugm-3 (Ref.eq)
10-01-2022,03:00,17.700,R,ugm-3 (FIDAS),15.142,R,ugm-3 (Ref.eq)
10-01-2022,04:00,17.975,R,ugm-3 (FIDAS),15.071,R,ugm-3 (Ref.eq)
10-01-2022,05:00,17.725,R,ugm-3 (FIDAS),14.505,R,ugm-3 (Ref.eq)
10-01-2022,06:00,16.600,R,ugm-3 (FIDAS),13.302,R,ugm-3 (Ref.eq)
10-01-2022,07:00,15.425,R,ugm-3 (FIDAS),12.429,R,ugm-3 (Ref.eq)
10-01-2022,08:00,15.275,R,ugm-3 (FIDAS),12.170,R,ugm-3 (Ref.eq)
10-01-2022,09:00,15.300,R,ugm-3 (FIDAS),11.958,R,ugm-3 (Ref.eq)
10-01-2022,10:00,15.125,R,ugm-3 (FIDAS),10.967,R,ugm-3 (Ref.eq)
10-01-2022,11:00,19.750,R,ugm-3 (FIDAS),14.906,R,ugm-3 (Ref.eq)
10-01-2022,12:00,19.675,R,ugm-3 (FIDAS),13.420,R,ugm-3 (Ref.eq)
10-01-2022,13:00,18.425,R,ugm-3 (FIDAS),13.160,R,ugm-3 (Ref.eq)
10-01-2022,14:00,16.800,R,ugm-3 (FIDAS),11.486,R,ugm-3 (Ref.eq)
10-01-2022,15:00,16.800,R,ugm-3 (FIDAS),11.203,R,ugm-3 (Ref.eq)
10-01-2022,16:00,15.700,R,ugm-3 (FIDAS),10.472,R,ugm-3 (Ref.eq)
10-01-2022,17:00,16.525,R,ugm-3 (FIDAS),10.495,R,ugm-3 (Ref.eq)
10-01-2022,18:00,16.750,R,ugm-3 (FIDAS),10.920,R,ugm-3 (Ref.eq)
10-01-2022,19:00,17.150,R,ugm-3 (FIDAS),10.920,R,ugm-3 (Ref.eq)
10-01-2022,20:00,14.875,R,ugm-3 (FIDAS),10.495,R,ugm-3 (Ref.eq)
10-01-2022,21:00,13.375,R,ugm-3 (FIDAS),9.552,R,ugm-3 (Ref.eq)
10-01-2022,22:00,10.575,R,ugm-3 (FIDAS),7.783,R,ugm-3 (Ref.eq)
10-01-2022,23:00,9.875,R,ugm-3 (FIDAS),6.863,R,ugm-3 (Ref.eq)
10-01-2022,24:00,12.675,R,ugm-3 (FIDAS),9.009,R,ugm-3 (Ref.eq)
11-01-2022,01:00,15.525,R,ugm-3 (FIDAS),11.698,R,ugm-3 (Ref.eq)
11-01-2022,02:00,16.125,R,ugm-3 (FIDAS),11.958,R,ugm-3 (Ref.eq)
11-01-2022,03:00,15.425,R,ugm-3 (FIDAS),11.415,R,ugm-3 (Ref.eq)
11-01-2022,04:00,10.125,R,ugm-3 (FIDAS),7.123,R,ugm-3 (Ref.eq)
11-01-2022,05:00,7.200,R,ugm-3 (FIDAS),5.330,R,ugm-3 (Ref.eq)
11-01-2022,06:00,5.675,R,ugm-3 (FIDAS),4.316,R,ugm-3 (Ref.eq)
11-01-2022,07:00,4.275,R,ugm-3 (FIDAS),3.113,R,ugm-3 (Ref.eq)
11-01-2022,08:00,6.200,R,ugm-3 (FIDAS),4.835,R,ugm-3 (Ref.eq)
11-01-2022,09:00,5.675,R,ugm-3 (FIDAS),4.434,R,ugm-3 (Ref.eq)
11-01-2022,10:00,4.350,R,ugm-3 (FIDAS),3.491,R,ugm-3 (Ref.eq)
11-01-2022,11:00,6.300,R,ugm-3 (FIDAS),4.976,R,ugm-3 (Ref.eq)
11-01-2022,12:00,6.625,R,ugm-3 (FIDAS),5.259,R,ugm-3 (Ref.eq)
11-01-2022,13:00,6.075,R,ugm-3 (FIDAS),4.410,R,ugm-3 (Ref.eq)
11-01-2022,14:00,6.500,R,ugm-3 (FIDAS),5.165,R,ugm-3 (Ref.eq)
11-01-2022,15:00,10.450,R,ugm-3 (FIDAS),8.797,R,ugm-3 (Ref.eq)
11-01-2022,16:00,10.875,R,ugm-3 (FIDAS),9.387,R,ugm-3 (Ref.eq)
11-01-2022,17:00,7.925,R,ugm-3 (FIDAS),6.486,R,ugm-3 (Ref.eq)
11-01-2022,18:00,7.750,R,ugm-3 (FIDAS),5.896,R,ugm-3 (Ref.eq)
11-01-2022,19:00,10.100,R,ugm-3 (FIDAS),7.948,R,ugm-3 (Ref.eq)
11-01-2022,20:00,13.175,R,ugm-3 (FIDAS),10.755,R,ugm-3 (Ref.eq)
11-01-2022,21:00,18.175,R,ugm-3 (FIDAS),12.759,R,ugm-3 (Ref.eq)
11-01-2022,22:00,19.125,R,ugm-3 (FIDAS),12.972,R,ugm-3 (Ref.eq)
11-01-2022,23:00,18.900,R,ugm-3 (FIDAS),12.783,R,ugm-3 (Ref.eq)
11-01-2022,24:00,20.125,R,ugm-3 (FIDAS),12.901,R,ugm-3 (Ref.eq)
12-01-2022,01:00,18.400,R,ugm-3 (FIDAS),12.524,R,ugm-3 (Ref.eq)
12-01-2022,02:00,21.300,R,ugm-3 (FIDAS),14.505,R,ugm-3 (Ref.eq)
12-01-2022,03:00,20.075,R,ugm-3 (FIDAS),14.458,R,ugm-3 (Ref.eq)
12-01-2022,04:00,17.675,R,ugm-3 (FIDAS),12.830,R,ugm-3 (Ref.eq)
12-01-2022,05:00,16.250,R,ugm-3 (FIDAS),12.241,R,ugm-3 (Ref.eq)
12-01-2022,06:00,12.325,R,ugm-3 (FIDAS),9.693,R,ugm-3 (Ref.eq)
12-01-2022,07:00,6.275,R,ugm-3 (FIDAS),5.307,R,ugm-3 (Ref.eq)
12-01-2022,08:00,6.700,R,ugm-3 (FIDAS),5.401,R,ugm-3 (Ref.eq)
12-01-2022,09:00,8.100,R,ugm-3 (FIDAS),6.085,R,ugm-3 (Ref.eq)
12-01-2022,10:00,8.650,R,ugm-3 (FIDAS),6.863,R,ugm-3 (Ref.eq)
12-01-2022,11:00,15.400,R,ugm-3 (FIDAS),10.660,R,ugm-3 (Ref.eq)
12-01-2022,12:00,22.275,R,ugm-3 (FIDAS),14.670,R,ugm-3 (Ref.eq)
12-01-2022,13:00,26.125,R,ugm-3 (FIDAS),16.250,R,ugm-3 (Ref.eq)
12-01-2022,14:00,25.425,R,ugm-3 (FIDAS),16.627,R,ugm-3 (Ref.eq)
12-01-2022,15:00,24.375,R,ugm-3 (FIDAS),15.495,R,ugm-3 (Ref.eq)
12-01-2022,16:00,18.350,R,ugm-3 (FIDAS),12.429,R,ugm-3 (Ref.eq)
12-01-2022,17:00,16.650,R,ugm-3 (FIDAS),11.203,R,ugm-3 (Ref.eq)
12-01-2022,18:00,16.450,R,ugm-3 (FIDAS),11.321,R,ugm-3 (Ref.eq)
12-01-2022,19:00,13.050,R,ugm-3 (FIDAS),9.788,R,ugm-3 (Ref.eq)
12-01-2022,20:00,10.475,R,ugm-3 (FIDAS),8.750,R,ugm-3 (Ref.eq)
12-01-2022,21:00,18.425,R,ugm-3 (FIDAS),16.014,R,ugm-3 (Ref.eq)
12-01-2022,22:00,19.575,R,ugm-3 (FIDAS),17.642,R,ugm-3 (Ref.eq)
12-01-2022,23:00,23.275,R,ugm-3 (FIDAS),20.731,R,ugm-3 (Ref.eq)
12-01-2022,24:00,23.700,R,ugm-3 (FIDAS),21.557,R,ugm-3 (Ref.eq)
13-01-2022,01:00,19.725,R,ugm-3 (FIDAS),17.948,R,ugm-3 (Ref.eq)
13-01-2022,02:00,20.500,R,ugm-3 (FIDAS),18.090,R,ugm-3 (Ref.eq)
13-01-2022,03:00,21.150,R,ugm-3 (FIDAS),18.609,R,ugm-3 (Ref.eq)
13-01-2022,04:00,20.700,R,ugm-3 (FIDAS),18.609,R,ugm-3 (Ref.eq)
13-01-2022,05:00,17.900,R,ugm-3 (FIDAS),16.344,R,ugm-3 (Ref.eq)
13-01-2022,06:00,18.150,R,ugm-3 (FIDAS),16.675,R,ugm-3 (Ref.eq)
13-01-2022,07:00,17.025,R,ugm-3 (FIDAS),15.778,R,ugm-3 (Ref.eq)
13-01-2022,08:00,18.000,R,ugm-3 (FIDAS),16.392,R,ugm-3 (Ref.eq)
13-01-2022,09:00,19.625,R,ugm-3 (FIDAS),17.830,R,ugm-3 (Ref.eq)
13-01-2022,10:00,18.600,R,ugm-3 (FIDAS),16.863,R,ugm-3 (Ref.eq)
13-01-2022,11:00,25.925,R,ugm-3 (FIDAS),22.264,R,ugm-3 (Ref.eq)
13-01-2022,12:00,22.150,R,ugm-3 (FIDAS),18.986,R,ugm-3 (Ref.eq)
13-01-2022,13:00,23.925,R,ugm-3 (FIDAS),19.057,R,ugm-3 (Ref.eq)
13-01-2022,14:00,19.075,R,ugm-3 (FIDAS),14.646,R,ugm-3 (Ref.eq)
13-01-2022,15:00,18.700,R,ugm-3 (FIDAS),14.363,R,ugm-3 (Ref.eq)
13-01-2022,16:00,19.600,R,ugm-3 (FIDAS),15.778,R,ugm-3 (Ref.eq)
13-01-2022,17:00,17.650,R,ugm-3 (FIDAS),13.373,R,ugm-3 (Ref.eq)
13-01-2022,18:00,32.400,R,ugm-3 (FIDAS),26.250,R,ugm-3 (Ref.eq)
13-01-2022,19:00,24.250,R,ugm-3 (FIDAS),19.788,R,ugm-3 (Ref.eq)
13-01-2022,20:00,27.550,R,ugm-3 (FIDAS),23.444,R,ugm-3 (Ref.eq)
13-01-2022,21:00,25.125,R,ugm-3 (FIDAS),21.580,R,ugm-3 (Ref.eq)
13-01-2022,22:00,26.700,R,ugm-3 (FIDAS),23.184,R,ugm-3 (Ref.eq)
13-01-2022,23:00,27.425,R,ugm-3 (FIDAS),24.245,R,ugm-3 (Ref.eq)
13-01-2022,24:00,29.250,R,ugm-3 (FIDAS),26.698,R,ugm-3 (Ref.eq)
14-01-2022,01:00,30.725,R,ugm-3 (FIDAS),27.477,R,ugm-3 (Ref.eq)
14-01-2022,02:00,25.325,R,ugm-3 (FIDAS),23.066,R,ugm-3 (Ref.eq)
14-01-2022,03:00,26.900,R,ugm-3 (FIDAS),24.151,R,ugm-3 (Ref.eq)
14-01-2022,04:00,26.650,R,ugm-3 (FIDAS),24.222,R,ugm-3 (Ref.eq)
14-01-2022,05:00,24.675,R,ugm-3 (FIDAS),22.288,R,ugm-3 (Ref.eq)
14-01-2022,06:00,23.250,R,ugm-3 (FIDAS),20.920,R,ugm-3 (Ref.eq)
14-01-2022,07:00,26.000,R,ugm-3 (FIDAS),23.043,R,ugm-3 (Ref.eq)
14-01-2022,08:00,25.675,R,ugm-3 (FIDAS),22.901,R,ugm-3 (Ref.eq)
14-01-2022,09:00,24.650,R,ugm-3 (FIDAS),21.816,R,ugm-3 (Ref.eq)
14-01-2022,10:00,28.950,R,ugm-3 (FIDAS),24.670,R,ugm-3 (Ref.eq)
14-01-2022,11:00,35.600,R,ugm-3 (FIDAS),29.387,R,ugm-3 (Ref.eq)
14-01-2022,12:00,53.850,R,ugm-3 (FIDAS),44.953,R,ugm-3 (Ref.eq)
14-01-2022,13:00,51.700,R,ugm-3 (FIDAS),42.595,R,ugm-3 (Ref.eq)
14-01-2022,14:00,45.300,R,ugm-3 (FIDAS),37.995,R,ugm-3 (Ref.eq)
14-01-2022,15:00,39.825,R,ugm-3 (FIDAS),31.981,R,ugm-3 (Ref.eq)
14-01-2022,16:00,38.300,R,ugm-3 (FIDAS),30.071,R,ugm-3 (Ref.eq)
14-01-2022,17:00,37.400,R,ugm-3 (FIDAS),29.528,R,ugm-3 (Ref.eq)
14-01-2022,18:00,42.200,R,ugm-3 (FIDAS),33.491,R,ugm-3 (Ref.eq)
14-01-2022,19:00,49.750,R,ugm-3 (FIDAS),39.340,R,ugm-3 (Ref.eq)
14-01-2022,20:00,45.175,R,ugm-3 (FIDAS),36.580,R,ugm-3 (Ref.eq)
14-01-2022,21:00,45.950,R,ugm-3 (FIDAS),39.151,R,ugm-3 (Ref.eq)
14-01-2022,22:00,49.250,R,ugm-3 (FIDAS),43.727,R,ugm-3 (Ref.eq)
14-01-2022,23:00,43.700,R,ugm-3 (FIDAS),40.330,R,ugm-3 (Ref.eq)
14-01-2022,24:00,43.500,R,ugm-3 (FIDAS),36.840,R,ugm-3 (Ref.eq)
15-01-2022,01:00,35.400,R,ugm-3 (FIDAS),31.533,R,ugm-3 (Ref.eq)
15-01-2022,02:00,25.925,R,ugm-3 (FIDAS),23.585,R,ugm-3 (Ref.eq)
15-01-2022,03:00,29.750,R,ugm-3 (FIDAS),26.132,R,ugm-3 (Ref.eq)
15-01-2022,04:00,28.475,R,ugm-3 (FIDAS),25.307,R,ugm-3 (Ref.eq)
15-01-2022,05:00,34.100,R,ugm-3 (FIDAS),30.000,R,ugm-3 (Ref.eq)
15-01-2022,06:00,27.000,R,ugm-3 (FIDAS),24.835,R,ugm-3 (Ref.eq)
15-01-2022,07:00,23.750,R,ugm-3 (FIDAS),21.769,R,ugm-3 (Ref.eq)
15-01-2022,08:00,22.500,R,ugm-3 (FIDAS),20.778,R,ugm-3 (Ref.eq)
15-01-2022,09:00,18.725,R,ugm-3 (FIDAS),17.264,R,ugm-3 (Ref.eq)
15-01-2022,10:00,16.625,R,ugm-3 (FIDAS),15.047,R,ugm-3 (Ref.eq)
15-01-2022,11:00,18.125,R,ugm-3 (FIDAS),16.816,R,ugm-3 (Ref.eq)
15-01-2022,12:00,20.850,R,ugm-3 (FIDAS),19.127,R,ugm-3 (Ref.eq)
15-01-2022,13:00,24.375,R,ugm-3 (FIDAS),21.604,R,ugm-3 (Ref.eq)
15-01-2022,14:00,27.225,R,ugm-3 (FIDAS),23.868,R,ugm-3 (Ref.eq)
15-01-2022,15:00,29.550,R,ugm-3 (FIDAS),25.684,R,ugm-3 (Ref.eq)
15-01-2022,16:00,29.175,R,ugm-3 (FIDAS),25.401,R,ugm-3 (Ref.eq)
15-01-2022,17:00,29.875,R,ugm-3 (FIDAS),26.014,R,ugm-3 (Ref.eq)
15-01-2022,18:00,28.350,R,ugm-3 (FIDAS),25.024,R,ugm-3 (Ref.eq)
15-01-2022,19:00,28.325,R,ugm-3 (FIDAS),25.354,R,ugm-3 (Ref.eq)
15-01-2022,20:00,30.075,R,ugm-3 (FIDAS),26.863,R,ugm-3 (Ref.eq)
15-01-2022,21:00,32.800,R,ugm-3 (FIDAS),29.127,R,ugm-3 (Ref.eq)
15-01-2022,22:00,34.775,R,ugm-3 (FIDAS),31.179,R,ugm-3 (Ref.eq)
15-01-2022,23:00,39.350,R,ugm-3 (FIDAS),35.330,R,ugm-3 (Ref.eq)
15-01-2022,24:00,35.850,R,ugm-3 (FIDAS),32.359,R,ugm-3 (Ref.eq)
16-01-2022,01:00,32.000,R,ugm-3 (FIDAS),28.467,R,ugm-3 (Ref.eq)
16-01-2022,02:00,30.575,R,ugm-3 (FIDAS),27.477,R,ugm-3 (Ref.eq)
16-01-2022,03:00,30.275,R,ugm-3 (FIDAS),27.005,R,ugm-3 (Ref.eq)
16-01-2022,04:00,25.775,R,ugm-3 (FIDAS),22.854,R,ugm-3 (Ref.eq)
16-01-2022,05:00,22.375,R,ugm-3 (FIDAS),19.741,R,ugm-3 (Ref.eq)
16-01-2022,06:00,23.025,R,ugm-3 (FIDAS),20.212,R,ugm-3 (Ref.eq)
16-01-2022,07:00,21.025,R,ugm-3 (FIDAS),18.892,R,ugm-3 (Ref.eq)
16-01-2022,08:00,16.775,R,ugm-3 (FIDAS),14.976,R,ugm-3 (Ref.eq)
16-01-2022,09:00,16.250,R,ugm-3 (FIDAS),14.151,R,ugm-3 (Ref.eq)
16-01-2022,10:00,15.825,R,ugm-3 (FIDAS),13.844,R,ugm-3 (Ref.eq)
16-01-2022,11:00,13.075,R,ugm-3 (FIDAS),11.509,R,ugm-3 (Ref.eq)
16-01-2022,12:00,11.225,R,ugm-3 (FIDAS),9.882,R,ugm-3 (Ref.eq)
16-01-2022,13:00,12.150,R,ugm-3 (FIDAS),10.543,R,ugm-3 (Ref.eq)
16-01-2022,14:00,15.000,R,ugm-3 (FIDAS),13.184,R,ugm-3 (Ref.eq)
16-01-2022,15:00,17.675,R,ugm-3 (FIDAS),15.448,R,ugm-3 (Ref.eq)